QPF
0.00 0.00 0.00 0.00 0.00 0.00 0.00 0.00 0.00 0.00 0.00 0.00 0.00 0.00 0.00 0.00 0.00 0.00 0.00 0.00 0.00 0.00 0.00 0.00 0.00 0.00 0.01 0.01 0.01 0.01 0.00 0.00 0.01 0.01 0.00 0.00 0.00 0.01 0.01 0.01 0.01 0.03 0.03 0.02 0.01 0.00 0.00 0.00 0.00
0.00 0.00 0.00 0.00 0.00 0.00 0.00 0.00 0.00 0.00 0.00 0.00 0.00 0.00 0.00 0.00 0.00 0.00 0.00 0.00 0.00 0.00 0.00 0.00 0.00 0.00 0.01 0.01 0.01 0.00 0.00 0.00 0.00 0.00 0.00 0.00 0.00 0.01 0.01 0.01 0.02 0.03 0.02 0.01 0.01 0.00 0.00 0.00 0.00
0.00 0.00 0.00 0.00 0.00 0.00 0.00 0.00 0.00 0.00 0.00 0.00 0.00 0.00 0.00 0.00 0.00 0.00 0.00 0.00 0.00 0.00 0.00 0.00 0.00 0.01 0.01 0.01 0.01 0.00 0.00 0.00 0.00 0.00 0.00 0.00 0.00 0.01 0.01 0.01 0.01 0.01 0.01 0.01 0.00 0.00 0.00 0.00 0.00
0.00 0.00 0.00 0.00 0.00 0.00 0.00 0.00 0.00 0.00 0.00 0.00 0.00 0.00 0.00 0.00 0.00 0.00 0.00 0.00 0.00 0.00 0.00 0.00 0.00 0.01 0.01 0.01 0.01 0.01 0.00 0.00 0.00 0.00 0.00 0.00 0.00 0.01 0.01 0.01 0.00 0.00 0.00 0.00 0.00 0.00 0.00 0.00 0.00
0.00 0.00 0.00 0.00 0.00 0.00 0.00 0.00 0.00 0.00 0.00 0.00 0.00 0.00 0.00 0.00 0.00 0.00 0.00 0.00 0.00 0.00 0.00 0.00 0.00 0.01 0.01 0.01 0.01 0.01 0.01 0.00 0.00 0.00 0.00 0.00 0.01 0.01 0.00 0.00 0.00 0.00 0.00 0.00 0.00 0.00 0.00 0.00 0.00
0.01 0.01 0.01 0.00 0.00 0.00 0.00 0.00 0.00 0.00 0.00 0.00 0.00 0.00 0.00 0.00 0.00 0.00 0.00 0.00 0.00 0.00 0.00 0.00 0.01 0.01 0.01 0.01 0.01 0.01 0.01 0.00 0.00 0.00 0.00 0.00 0.00 0.00 0.00 0.00 0.00 0.00 0.00 0.00 0.00 0.00 0.00 0.00 0.00
0.01 0.01 0.00 0.00 0.00 0.00 0.00 0.00 0.00 0.00 0.00 0.00 0.00 0.00 0.01 0.00 0.00 0.00 0.00 0.00 0.00 0.00 0.00 0.00 0.00 0.01 0.01 0.01 0.01 0.01 0.01 0.00 0.00 0.00 0.00 0.00 0.00 0.00 0.00 0.00 0.00 0.00 0.00 0.00 0.00 0.00 0.00 0.00 0.00
0.01 0.01 0.01 0.00 0.00 0.00 0.00 0.00 0.00 0.00 0.00 0.00 0.00 0.00 0.01 0.00 0.00 0.00 0.00 0.00 0.00 0.00 0.00 0.00 0.00 0.00 0.01 0.01 0.01 0.01 0.00 0.00 0.00 0.00 0.00 0.00 0.00 0.00 0.00 0.00 0.00 0.00 0.00 0.00 0.00 0.00 0.00 0.00 0.00
0.00 0.01 0.01 0.00 0.00 0.00 0.00 0.00 0.00 0.00 0.00 0.00 0.00 0.00 0.00 0.00 0.00 0.00 0.00 0.00 0.00 0.00 0.00 0.00 0.00 0.00 0.00 0.00 0.00 0.00 0.00 0.00 0.00 0.00 0.00 0.00 0.00 0.00 0.00 0.00 0.00 0.00 0.00 0.00 0.00 0.00 0.00 0.00 0.00
0.01 0.01 0.01 0.00 0.00 0.00 0.00 0.00 0.00 0.00 0.00 0.00 0.00 0.00 0.00 0.00 0.00 0.00 0.00 0.00 0.00 0.00 0.00 0.00 0.00 0.00 0.00 0.00 0.00 0.00 0.00 0.00 0.00 0.00 0.00 0.00 0.00 0.00 0.00 0.00 0.00 0.00 0.00 0.00 0.00 0.00 0.00 0.00 0.00
0.01 0.00 0.00 0.00 0.00 0.00 0.00 0.00 0.00 0.00 0.00 0.00 0.00 0.00 0.00 0.00 0.00 0.00 0.00 0.00 0.00 0.00 0.00 0.00 0.00 0.00 0.00 0.00 0.00 0.00 0.00 0.00 0.00 0.00 0.00 0.00 0.00 0.00 0.00 0.00 0.00 0.00 0.00 0.00 0.00 0.00 0.00 0.00 0.00
0.00 0.00 0.00 0.00 0.00 0.00 0.00 0.00 0.00 0.00 0.00 0.00 0.00 0.00 0.00 0.00 0.00 0.00 0.00 0.00 0.00 0.00 0.00 0.00 0.00 0.00 0.00 0.00 0.00 0.00 0.00 0.00 0.00 0.00 0.00 0.00 0.00 0.00 0.00 0.00 0.00 0.00 0.00 0.00 0.00 0.00 0.00 0.00 0.00
0.00 0.00 0.00 0.00 0.00 0.00 0.00 0.00 0.00 0.00 0.00 0.00 0.00 0.00 0.00 0.00 0.00 0.00 0.00 0.00 0.00 0.00 0.00 0.00 0.00 0.00 0.00 0.00 0.00 0.00 0.00 0.00 0.00 0.00 0.00 0.00 0.00 0.00 0.00 0.00 0.00 0.00 0.00 0.00 0.00 0.00 0.00 0.00 0.00
0.00 0.00 0.00 0.00 0.00 0.00 0.00 0.00 0.00 0.00 0.00 0.00 0.00 0.00 0.00 0.00 0.00 0.00 0.00 0.00 0.00 0.00 0.00 0.00 0.00 0.00 0.00 0.00 0.00 0.00 0.00 0.00 0.00 0.00 0.00 0.00 0.00 0.00 0.00 0.00 0.00 0.00 0.00 0.00 0.00 0.00 0.00 0.00 0.00
0.00 0.00 0.00 0.00 0.00 0.00 0.00 0.00 0.00 0.00 0.00 0.00 0.00 0.00 0.00 0.00 0.00 0.00 0.00 0.00 0.00 0.00 0.00 0.00 0.00 0.00 0.00 0.00 0.00 0.00 0.00 0.00 0.00 0.00 0.00 0.00 0.00 0.00 0.00 0.00 0.00 0.00 0.00 0.00 0.00 0.00 0.00 0.00 0.00
0.01 0.01 0.01 0.00 0.00 0.00 0.00 0.00 0.00 0.00 0.00 0.00 0.00 0.00 0.00 0.00 0.00 0.00 0.00 0.00 0.00 0.00 0.01 0.00 0.00 0.00 0.00 0.00 0.00 0.00 0.00 0.00 0.00 0.00 0.00 0.00 0.00 0.00 0.00 0.00 0.00 0.00 0.00 0.00 0.00 0.00 0.00 0.00 0.00
0.03 0.01 0.00 0.00 0.00 0.00 0.00 0.00 0.00 0.00 0.00 0.00 0.00 0.00 0.00 0.00 0.00 0.00 0.00 0.00 0.00 0.00 0.00 0.00 0.00 0.00 0.00 0.00 0.00 0.00 0.00 0.00 0.00 0.00 0.00 0.00 0.00 0.00 0.00 0.00 0.00 0.00 0.00 0.00 0.00 0.00 0.00 0.00 0.00
0.01 0.00 0.00 0.00 0.00 0.00 0.00 0.00 0.00 0.00 0.00 0.00 0.00 0.00 0.00 0.00 0.00 0.00 0.00 0.00 0.00 0.00 0.00 0.00 0.00 0.00 0.00 0.00 0.01 0.01 0.00 0.00 0.00 0.00 0.00 0.00 0.00 0.00 0.00 0.00 0.00 0.00 0.00 0.00 0.00 0.00 0.00 0.00 0.00
0.01 0.00 0.00 0.00 0.00 0.00 0.00 0.00 0.00 0.00 0.00 0.00 0.00 0.00 0.00 0.00 0.00 0.00 0.00 0.00 0.00 0.00 0.00 0.00 0.00 0.00 0.00 0.00 0.01 0.01 0.01 0.00 0.00 0.00 0.00 0.00 0.00 0.01 0.00 0.00 0.00 0.00 0.00 0.00 0.01 0.00 0.00 0.00 0.00
0.02 0.01 0.00 0.00 0.00 0.00 0.00 0.00 0.00 0.00 0.00 0.00 0.00 0.00 0.00 0.00 0.00 0.00 0.00 0.00 0.00 0.00 0.00 0.00 0.00 0.00 0.00 0.00 0.00 0.00 0.00 0.00 0.00 0.00 0.00 0.00 0.01 0.01 0.01 0.01 0.01 0.00 0.00 0.01 0.01 0.01 0.01 0.01 0.01
0.02 0.01 0.01 0.00 0.00 0.00 0.00 0.00 0.00 0.00 0.00 0.00 0.00 0.00 0.00 0.00 0.00 0.00 0.00 0.00 0.00 0.00 0.00 0.00 0.00 0.00 0.00 0.00 0.01 0.00 0.00 0.00 0.00 0.00 0.00 0.00 0.00 0.01 0.01 0.01 0.01 0.01 0.02 0.02 0.02 0.02 0.02 0.01 0.01
0.04 0.02 0.01 0.01 0.00 0.00 0.00 0.00 0.00 0.00 0.00 0.00 0.00 0.00 0.00 0.00 0.00 0.00 0.00 0.00 0.00 0.00 0.00 0.00 0.00 0.00 0.00 0.00 0.00 0.00 0.00 0.00 0.00 0.00 0.00 0.00 0.00 0.00 0.01 0.01 0.02 0.02 0.02 0.03 0.04 0.05 0.05 0.04 0.03
0.05 0.02 0.01 0.01 0.00 0.00 0.00 0.00 0.00 0.00 0.00 0.00 0.00 0.00 0.00 0.00 0.00 0.00 0.00 0.00 0.00 0.00 0.00 0.00 0.00 0.00 0.00 0.00 0.00 0.00 0.00 0.00 0.00 0.00 0.00 0.00 0.00 0.01 0.01 0.01 0.02 0.02 0.02 0.04 0.05 0.06 0.07 0.08 0.07
0.04 0.03 0.02 0.01 0.01 0.00 0.00 0.00 0.00 0.00 0.00 0.00 0.00 0.00 0.00 0.00 0.00 0.00 0.00 0.00 0.00 0.00 0.00 0.00 0.00 0.00 0.00 0.00 0.00 0.00 0.00 0.00 0.00 0.00 0.00 0.00 0.00 0.01 0.01 0.01 0.02 0.02 0.03 0.04 0.06 0.08 0.10 0.11 0.12
0.04 0.03 0.04 0.04 0.02 0.00 0.00 0.00 0.00 0.00 0.00 0.00 0.00 0.00 0.00 0.00 0.00 0.00 0.00 0.00 0.00 0.00 0.00 0.00 0.00 0.00 0.00 0.00 0.00 0.00 0.00 0.00 0.00 0.00 0.00 0.00 0.01 0.01 0.01 0.02 0.02 0.03 0.04 0.05 0.08 0.09 0.11 0.14 0.15
0.04 0.04 0.04 0.02 0.01 0.00 0.00 0.00 0.00 0.00 0.00 0.00 0.00 0.00 0.00 0.00 0.00 0.00 0.00 0.00 0.00 0.00 0.00 0.00 0.00 0.00 0.00 0.00 0.00 0.00 0.00 0.00 0.00 0.00 0.00 0.00 0.01 0.01 0.01 0.02 0.02 0.03 0.04 0.05 0.07 0.09 0.11 0.13 0.15
0.03 0.03 0.01 0.01 0.00 0.00 0.00 0.00 0.00 0.00 0.00 0.00 0.00 0.00 0.00 0.00 0.00 0.00 0.00 0.00 0.00 0.00 0.00 0.00 0.00 0.00 0.00 0.00 0.00 0.00 0.00 0.00 0.00 0.00 0.00 0.00 0.00 0.01 0.01 0.01 0.02 0.02 0.03 0.04 0.06 0.08 0.09 0.11 0.13
0.02 0.01 0.00 0.00 0.00 0.00 0.00 0.00 0.00 0.00 0.00 0.00 0.00 0.00 0.00 0.00 0.00 0.00 0.00 0.00 0.00 0.00 0.00 0.00 0.00 0.00 0.00 0.00 0.00 0.00 0.00 0.00 0.00 0.00 0.00 0.00 0.00 0.00 0.00 0.00 0.01 0.01 0.02 0.03 0.04 0.05 0.06 0.08 0.09
0.00 0.01 0.00 0.00 0.00 0.00 0.00 0.00 0.00 0.00 0.00 0.00 0.00 0.00 0.00 0.00 0.00 0.00 0.00 0.00 0.00 0.00 0.00 0.00 0.00 0.00 0.00 0.00 0.00 0.00 0.00 0.00 0.00 0.00 0.00 0.00 0.00 0.00 0.00 0.00 0.00 0.01 0.01 0.02 0.02 0.03 0.04 0.05 0.06
0.00 0.00 0.00 0.00 0.00 0.00 0.00 0.00 0.00 0.00 0.00 0.00 0.00 0.00 0.00 0.00 0.00 0.00 0.00 0.00 0.00 0.00 0.00 0.00 0.00 0.00 0.00 0.00 0.00 0.00 0.00 0.00 0.00 0.00 0.00 0.00 0.00 0.00 0.00 0.00 0.00 0.00 0.01 0.01 0.02 0.03 0.04 0.04 0.05
MSLP
1013.17 1013.51 1013.90 1014.25 1014.50 1014.57 1014.45 1014.14 1013.69 1013.18 1012.69 1012.27 1011.98 1011.82 1011.76 1011.78 1011.82 1011.87 1011.90 1011.94 1012.00 1012.14 1012.39 1012.76 1013.24 1013.79 1014.36 1014.89 1015.34 1015.68 1015.93 1016.10 1016.23 1016.37 1016.54 1016.76 1017.00 1017.27 1017.52 1017.73 1017.91 1018.05 1018.17 1018.30 1018.45 1018.62 1018.81 1018.99 1019.14
1013.61 1013.99 1014.36 1014.64 1014.75 1014.66 1014.37 1013.91 1013.35 1012.78 1012.26 1011.87 1011.62 1011.50 1011.47 1011.50 1011.54 1011.56 1011.58 1011.61 1011.70 1011.90 1012.23 1012.70 1013.29 1013.94 1014.58 1015.17 1015.66 1016.02 1016.28 1016.45 1016.59 1016.74 1016.91 1017.12 1017.35 1017.59 1017.80 1017.98 1018.13 1018.26 1018.38 1018.53 1018.71 1018.92 1019.14 1019.34 1019.49
1014.11 1014.51 1014.84 1015.02 1014.98 1014.72 1014.27 1013.67 1013.02 1012.40 1011.89 1011.53 1011.32 1011.24 1011.24 1011.28 1011.30 1011.30 1011.30 1011.33 1011.45 1011.70 1012.10 1012.66 1013.34 1014.07 1014.79 1015.43 1015.95 1016.34 1016.61 1016.80 1016.96 1017.12 1017.30 1017.50 1017.72 1017.92 1018.10 1018.24 1018.35 1018.45 1018.57 1018.73 1018.93 1019.16 1019.41 1019.62 1019.77
1014.57 1014.97 1015.23 1015.29 1015.11 1014.70 1014.11 1013.41 1012.70 1012.07 1011.59 1011.28 1011.13 1011.09 1011.12 1011.16 1011.17 1011.15 1011.14 1011.17 1011.30 1011.59 1012.06 1012.68 1013.43 1014.22 1014.97 1015.64 1016.18 1016.59 1016.88 1017.09 1017.27 1017.45 1017.65 1017.86 1018.06 1018.25 1018.39 1018.50 1018.58 1018.66 1018.77 1018.93 1019.15 1019.39 1019.65 1019.87 1020.02
1014.90 1015.25 1015.43 1015.38 1015.07 1014.54 1013.86 1013.11 1012.39 1011.80 1011.38 1011.14 1011.06 1011.09 1011.15 1011.20 1011.20 1011.17 1011.14 1011.17 1011.32 1011.64 1012.14 1012.80 1013.57 1014.37 1015.13 1015.80 1016.34 1016.74 1017.04 1017.27 1017.47 1017.68 1017.90 1018.13 1018.35 1018.53 1018.66 1018.75 1018.82 1018.90 1019.01 1019.17 1019.39 1019.64 1019.90 1020.11 1020.26
1015.00 1015.29 1015.36 1015.20 1014.80 1014.20 1013.49 1012.75 1012.09 1011.58 1011.26 1011.12 1011.13 1011.22 1011.32 1011.39 1011.40 1011.36 1011.33 1011.36 1011.52 1011.85 1012.35 1013.01 1013.77 1014.54 1015.28 1015.90 1016.41 1016.79 1017.08 1017.32 1017.55 1017.78 1018.04 1018.29 1018.53 1018.73 1018.88 1018.99 1019.07 1019.16 1019.28 1019.45 1019.67 1019.91 1020.16 1020.36 1020.49
1014.87 1015.05 1015.03 1014.77 1014.31 1013.69 1013.00 1012.34 1011.78 1011.39 1011.20 1011.19 1011.29 1011.46 1011.61 1011.71 1011.73 1011.71 1011.69 1011.73 1011.89 1012.21 1012.70 1013.32 1014.03 1014.74 1015.41 1015.97 1016.42 1016.76 1017.03 1017.27 1017.50 1017.77 1018.05 1018.34 1018.62 1018.86 1019.04 1019.18 1019.30 1019.41 1019.56 1019.74 1019.96 1020.20 1020.42 1020.59 1020.70
1014.56 1014.63 1014.50 1014.18 1013.69 1013.10 1012.48 1011.92 1011.50 1011.26 1011.21 1011.31 1011.52 1011.76 1011.96 1012.10 1012.15 1012.15 1012.14 1012.20 1012.36 1012.67 1013.12 1013.69 1014.32 1014.95 1015.52 1016.00 1016.38 1016.67 1016.91 1017.14 1017.39 1017.67 1017.98 1018.31 1018.62 1018.89 1019.12 1019.30 1019.46 1019.62 1019.80 1020.00 1020.22 1020.44 1020.63 1020.77 1020.85
1014.17 1014.13 1013.92 1013.56 1013.07 1012.53 1012.01 1011.58 1011.30 1011.20 1011.28 1011.49 1011.77 1012.07 1012.32 1012.49 1012.58 1012.61 1012.63 1012.70 1012.87 1013.15 1013.56 1014.06 1014.60 1015.13 1015.60 1016.00 1016.31 1016.55 1016.77 1016.99 1017.24 1017.53 1017.86 1018.20 1018.54 1018.84 1019.11 1019.33 1019.53 1019.73 1019.94 1020.16 1020.38 1020.58 1020.75 1020.86 1020.90
1013.81 1013.69 1013.43 1013.05 1012.60 1012.13 1011.71 1011.40 1011.24 1011.25 1011.42 1011.69 1012.02 1012.34 1012.62 1012.81 1012.93 1013.00 1013.05 1013.15 1013.32 1013.58 1013.94 1014.36 1014.81 1015.25 1015.63 1015.95 1016.21 1016.42 1016.62 1016.83 1017.09 1017.38 1017.71 1018.06 1018.40 1018.71 1018.99 1019.24 1019.47 1019.70 1019.93 1020.16 1020.39 1020.59 1020.74 1020.82 1020.84
1013.58 1013.42 1013.14 1012.78 1012.38 1011.99 1011.67 1011.45 1011.37 1011.44 1011.63 1011.91 1012.23 1012.54 1012.81 1013.02 1013.16 1013.25 1013.34 1013.46 1013.64 1013.88 1014.19 1014.54 1014.91 1015.26 1015.57 1015.84 1016.06 1016.26 1016.46 1016.68 1016.94 1017.23 1017.56 1017.88 1018.20 1018.50 1018.77 1019.02 1019.26 1019.50 1019.75 1020.00 1020.24 1020.43 1020.58 1020.65 1020.66
1013.50 1013.35 1013.10 1012.79 1012.46 1012.15 1011.90 1011.75 1011.70 1011.76 1011.91 1012.14 1012.39 1012.65 1012.88 1013.07 1013.22 1013.34 1013.46 1013.60 1013.78 1014.00 1014.27 1014.56 1014.86 1015.14 1015.40 1015.63 1015.85 1016.05 1016.27 1016.51 1016.78 1017.07 1017.38 1017.67 1017.96 1018.22 1018.46 1018.69 1018.92 1019.16 1019.42 1019.68 1019.93 1020.14 1020.29 1020.38 1020.40
1013.56 1013.45 1013.27 1013.05 1012.81 1012.58 1012.38 1012.25 1012.18 1012.18 1012.25 1012.36 1012.51 1012.67 1012.83 1012.98 1013.12 1013.25 1013.40 1013.55 1013.74 1013.94 1014.17 1014.41 1014.65 1014.88 1015.11 1015.33 1015.55 1015.79 1016.03 1016.30 1016.59 1016.88 1017.16 1017.42 1017.66 1017.87 1018.07 1018.26 1018.48 1018.71 1018.97 1019.24 1019.51 1019.74 1019.93 1020.05 1020.12
1013.66 1013.64 1013.56 1013.44 1013.30 1013.15 1013.00 1012.86 1012.74 1012.65 1012.59 1012.56 1012.57 1012.61 1012.68 1012.77 1012.89 1013.03 1013.18 1013.35 1013.53 1013.72 1013.91 1014.11 1014.30 1014.50 1014.71 1014.94 1015.18 1015.44 1015.73 1016.03 1016.33 1016.62 1016.88 1017.11 1017.30 1017.47 1017.62 1017.79 1017.98 1018.21 1018.47 1018.76 1019.05 1019.32 1019.56 1019.73 1019.85
1013.71 1013.79 1013.83 1013.83 1013.79 1013.72 1013.61 1013.47 1013.29 1013.10 1012.91 1012.73 1012.60 1012.51 1012.49 1012.52 1012.61 1012.74 1012.90 1013.07 1013.24 1013.41 1013.57 1013.73 1013.89 1014.07 1014.26 1014.49 1014.76 1015.05 1015.36 1015.69 1016.00 1016.28 1016.53 1016.73 1016.89 1017.03 1017.16 1017.30 1017.49 1017.71 1017.99 1018.30 1018.62 1018.94 1019.22 1019.46 1019.65
1013.65 1013.82 1013.97 1014.08 1014.15 1014.17 1014.10 1013.96 1013.74 1013.47 1013.17 1012.87 1012.62 1012.43 1012.32 1012.30 1012.35 1012.47 1012.62 1012.78 1012.94 1013.09 1013.22 1013.35 1013.48 1013.64 1013.83 1014.06 1014.33 1014.64 1014.97 1015.30 1015.61 1015.88 1016.11 1016.30 1016.44 1016.57 1016.69 1016.84 1017.03 1017.27 1017.56 1017.90 1018.25 1018.61 1018.95 1019.25 1019.50
1013.45 1013.69 1013.92 1014.14 1014.31 1014.40 1014.40 1014.28 1014.05 1013.73 1013.37 1012.99 1012.66 1012.40 1012.24 1012.17 1012.20 1012.30 1012.43 1012.58 1012.72 1012.84 1012.95 1013.05 1013.16 1013.29 1013.47 1013.69 1013.96 1014.26 1014.58 1014.89 1015.18 1015.44 1015.65 1015.82 1015.96 1016.09 1016.23 1016.40 1016.62 1016.88 1017.20 1017.56 1017.95 1018.34 1018.72 1019.06 1019.37
1013.17 1013.43 1013.72 1014.01 1014.26 1014.42 1014.48 1014.40 1014.20 1013.88 1013.50 1013.11 1012.75 1012.46 1012.28 1012.19 1012.20 1012.28 1012.40 1012.52 1012.64 1012.73 1012.81 1012.88 1012.97 1013.09 1013.24 1013.45 1013.69 1013.96 1014.24 1014.51 1014.76 1014.98 1015.16 1015.32 1015.46 1015.61 1015.78 1015.98 1016.23 1016.53 1016.88 1017.26 1017.66 1018.07 1018.47 1018.84 1019.18
1012.90 1013.15 1013.45 1013.77 1014.06 1014.28 1014.39 1014.37 1014.22 1013.95 1013.61 1013.24 1012.90 1012.64 1012.46 1012.38 1012.38 1012.45 1012.54 1012.64 1012.72 1012.78 1012.83 1012.88 1012.94 1013.04 1013.17 1013.34 1013.55 1013.77 1013.98 1014.19 1014.37 1014.53 1014.67 1014.81 1014.95 1015.12 1015.32 1015.56 1015.85 1016.18 1016.54 1016.93 1017.33 1017.73 1018.13 1018.50 1018.86
1012.75 1012.95 1013.22 1013.52 1013.82 1014.06 1014.21 1014.24 1014.15 1013.95 1013.68 1013.39 1013.12 1012.90 1012.76 1012.71 1012.72 1012.77 1012.84 1012.90 1012.95 1012.98 1013.00 1013.03 1013.07 1013.14 1013.25 1013.38 1013.53 1013.68 1013.82 1013.94 1014.04 1014.13 1014.21 1014.31 1014.44 1014.61 1014.84 1015.11 1015.42 1015.76 1016.13 1016.50 1016.88 1017.26 1017.62 1017.98 1018.33
1012.80 1012.92 1013.12 1013.37 1013.63 1013.86 1014.02 1014.09 1014.05 1013.93 1013.74 1013.54 1013.36 1013.22 1013.14 1013.13 1013.15 1013.20 1013.25 1013.29 1013.30 1013.30 1013.28 1013.28 1013.30 1013.35 1013.42 1013.52 1013.61 1013.69 1013.75 1013.78 1013.78 1013.78 1013.79 1013.84 1013.94 1014.10 1014.33 1014.61 1014.93 1015.27 1015.62 1015.96 1016.29 1016.61 1016.93 1017.25 1017.57
1013.07 1013.11 1013.22 1013.38 1013.58 1013.75 1013.89 1013.95 1013.95 1013.88 1013.78 1013.66 1013.58 1013.53 1013.52 1013.56 1013.62 1013.67 1013.71 1013.72 1013.70 1013.66 1013.62 1013.59 1013.59 1013.61 1013.65 1013.70 1013.75 1013.76 1013.74 1013.68 1013.59 1013.51 1013.44 1013.43 1013.48 1013.62 1013.82 1014.08 1014.38 1014.69 1015.00 1015.29 1015.56 1015.82 1016.07 1016.34 1016.62
1013.50 1013.46 1013.48 1013.55 1013.65 1013.75 1013.82 1013.86 1013.85 1013.81 1013.76 1013.72 1013.72 1013.76 1013.83 1013.93 1014.03 1014.11 1014.15 1014.15 1014.10 1014.04 1013.97 1013.91 1013.88 1013.87 1013.89 1013.90 1013.90 1013.86 1013.77 1013.64 1013.48 1013.32 1013.18 1013.11 1013.11 1013.19 1013.35 1013.57 1013.82 1014.09 1014.34 1014.57 1014.77 1014.95 1015.14 1015.35 1015.60
1013.98 1013.90 1013.85 1013.83 1013.83 1013.83 1013.81 1013.78 1013.74 1013.69 1013.67 1013.68 1013.75 1013.86 1014.02 1014.18 1014.34 1014.46 1014.52 1014.52 1014.47 1014.39 1014.29 1014.21 1014.15 1014.12 1014.10 1014.09 1014.05 1013.97 1013.84 1013.67 1013.46 1013.24 1013.05 1012.92 1012.86 1012.89 1012.99 1013.15 1013.35 1013.55 1013.73 1013.88 1014.01 1014.13 1014.26 1014.42 1014.63
1014.40 1014.30 1014.21 1014.12 1014.03 1013.94 1013.83 1013.72 1013.61 1013.53 1013.50 1013.54 1013.65 1013.83 1014.06 1014.30 1014.52 1014.70 1014.80 1014.83 1014.79 1014.70 1014.60 1014.49 1014.41 1014.35 1014.31 1014.27 1014.22 1014.12 1013.97 1013.78 1013.55 1013.31 1013.09 1012.91 1012.80 1012.78 1012.81 1012.91 1013.03 1013.16 1013.27 1013.36 1013.43 1013.49 1013.57 1013.69 1013.88
1014.66 1014.58 1014.49 1014.36 1014.21 1014.04 1013.84 1013.64 1013.46 1013.32 1013.27 1013.31 1013.45 1013.67 1013.97 1014.29 1014.59 1014.83 1015.00 1015.08 1015.07 1015.00 1014.89 1014.78 1014.68 1014.60 1014.54 1014.49 1014.42 1014.33 1014.19 1014.00 1013.78 1013.55 1013.32 1013.12 1012.98 1012.90 1012.88 1012.91 1012.96 1013.02 1013.07 1013.10 1013.12 1013.14 1013.19 1013.29 1013.46
1014.72 1014.70 1014.63 1014.50 1014.32 1014.09 1013.83 1013.55 1013.29 1013.10 1013.00 1013.02 1013.17 1013.44 1013.78 1014.18 1014.56 1014.89 1015.13 1015.28 1015.32 1015.29 1015.20 1015.09 1014.98 1014.89 1014.82 1014.76 1014.71 1014.63 1014.52 1014.37 1014.18 1013.98 1013.77 1013.57 1013.41 1013.30 1013.23 1013.19 1013.18 1013.18 1013.17 1013.16 1013.15 1013.16 1013.19 1013.28 1013.44
1014.59 1014.64 1014.63 1014.53 1014.35 1014.10 1013.78 1013.45 1013.13 1012.88 1012.74 1012.74 1012.89 1013.17 1013.57 1014.02 1014.48 1014.90 1015.22 1015.45 1015.56 1015.58 1015.53 1015.44 1015.34 1015.25 1015.18 1015.14 1015.10 1015.05 1014.99 1014.89 1014.76 1014.60 1014.42 1014.25 1014.09 1013.95 1013.84 1013.76 1013.69 1013.64 1013.60 1013.56 1013.54 1013.54 1013.59 1013.68 1013.85
1014.35 1014.47 1014.52 1014.47 1014.31 1014.05 1013.71 1013.34 1012.98 1012.69 1012.52 1012.49 1012.64 1012.93 1013.36 1013.86 1014.39 1014.88 1015.29 1015.60 1015.79 1015.87 1015.88 1015.83 1015.76 1015.69 1015.64 1015.62 1015.61 1015.60 1015.58 1015.55 1015.47 1015.37 1015.25 1015.10 1014.95 1014.81 1014.68 1014.56 1014.46 1014.38 1014.31 1014.27 1014.25 1014.27 1014.33 1014.44 1014.61
1014.09 1014.27 1014.37 1014.35 1014.21 1013.96 1013.62 1013.23 1012.85 1012.54 1012.35 1012.31 1012.45 1012.76 1013.20 1013.74 1014.31 1014.86 1015.34 1015.72 1015.99 1016.15 1016.22 1016.23 1016.20 1016.18 1016.16 1016.17 1016.20 1016.24 1016.28 1016.30 1016.29 1016.24 1016.17 1016.06 1015.94 1015.80 1015.66 1015.52 1015.40 1015.30 1015.23 1015.18 1015.18 1015.21 1015.30 1015.44 1015.62
Thickness
5685 5693 5701 5699 5687 5683 5691 5715 5735 5740 5745 5756 5762 5763 5761 5761 5752 5741 5768 5785 5782 5775 5769 5764 5762 5759 5756 5754 5751 5748 5746 5744 5742 5741 5740 5739 5738 5737 5736 5735 5733 5732 5730 5728 5726 5724 5722 5720 5719
5677 5687 5689 5683 5672 5670 5692 5717 5728 5737 5744 5753 5756 5757 5757 5760 5766 5765 5773 5780 5778 5772 5766 5762 5759 5756 5753 5750 5747 5745 5742 5740 5738 5737 5736 5735 5734 5733 5732 5731 5729 5727 5725 5723 5721 5719 5717 5715 5714
5668 5678 5671 5669 5668 5675 5697 5723 5730 5738 5746 5747 5747 5756 5757 5754 5768 5769 5774 5777 5774 5769 5764 5759 5755 5752 5749 5746 5744 5741 5739 5736 5735 5733 5732 5731 5730 5729 5728 5726 5724 5722 5720 5718 5716 5714 5712 5710 5709
5659 5660 5662 5661 5668 5689 5704 5717 5727 5731 5738 5743 5746 5748 5754 5761 5768 5769 5772 5774 5770 5766 5760 5754 5752 5748 5746 5743 5740 5737 5735 5733 5731 5730 5728 5727 5726 5725 5723 5721 5719 5717 5715 5713 5711 5709 5707 5705 5703
5648 5646 5642 5650 5667 5693 5711 5718 5723 5724 5729 5737 5741 5740 5740 5756 5766 5767 5768 5769 5765 5762 5755 5749 5747 5744 5742 5739 5736 5734 5732 5729 5728 5726 5724 5723 5722 5720 5718 5716 5714 5712 5710 5708 5706 5704 5702 5700 5698
5632 5636 5634 5642 5664 5688 5705 5717 5718 5719 5726 5734 5737 5735 5733 5753 5756 5759 5763 5764 5763 5758 5750 5745 5742 5740 5737 5735 5733 5730 5728 5726 5724 5722 5721 5719 5717 5715 5713 5712 5709 5707 5705 5703 5701 5699 5697 5695 5693
5624 5627 5633 5647 5661 5678 5698 5713 5711 5711 5716 5727 5737 5730 5729 5743 5750 5755 5757 5759 5757 5753 5746 5740 5737 5735 5733 5731 5729 5727 5725 5723 5721 5719 5717 5715 5713 5711 5709 5707 5705 5703 5701 5699 5697 5694 5692 5690 5689
5629 5627 5630 5644 5657 5673 5698 5708 5712 5710 5713 5730 5734 5721 5718 5734 5746 5749 5751 5752 5750 5747 5742 5737 5734 5732 5729 5727 5725 5723 5721 5719 5717 5715 5713 5711 5709 5707 5705 5703 5701 5699 5697 5695 5693 5691 5689 5687 5685
5622 5614 5623 5642 5655 5671 5692 5696 5704 5713 5712 5720 5726 5720 5724 5734 5738 5738 5737 5738 5739 5739 5738 5735 5732 5730 5727 5724 5722 5719 5717 5715 5713 5711 5709 5707 5706 5704 5702 5700 5697 5695 5693 5691 5689 5687 5685 5683 5681
5609 5610 5631 5653 5662 5669 5680 5687 5694 5696 5695 5703 5712 5716 5723 5725 5726 5724 5724 5725 5728 5730 5732 5733 5731 5728 5726 5724 5719 5716 5714 5712 5710 5708 5706 5705 5704 5703 5700 5697 5694 5692 5690 5688 5686 5684 5682 5680 5678
5609 5618 5637 5648 5656 5662 5670 5678 5688 5686 5683 5694 5703 5708 5714 5716 5717 5717 5717 5718 5721 5724 5727 5728 5728 5726 5724 5721 5717 5715 5713 5710 5708 5707 5704 5703 5703 5701 5698 5694 5691 5689 5687 5685 5682 5680 5679 5677 5676
5610 5621 5632 5639 5646 5652 5660 5669 5675 5679 5683 5695 5702 5708 5710 5710 5711 5712 5713 5716 5717 5718 5720 5722 5723 5722 5720 5718 5716 5715 5712 5709 5707 5706 5704 5702 5701 5698 5695 5692 5689 5687 5685 5682 5680 5678 5677 5676 5675
5604 5615 5626 5631 5636 5643 5652 5658 5664 5671 5681 5691 5697 5701 5705 5706 5708 5710 5714 5716 5716 5715 5716 5717 5717 5717 5716 5715 5713 5712 5711 5709 5706 5704 5702 5700 5698 5696 5693 5691 5688 5686 5683 5681 5679 5676 5675 5673 5672
5601 5608 5615 5621 5627 5636 5639 5646 5653 5663 5676 5682 5687 5691 5697 5701 5705 5707 5709 5712 5713 5713 5713 5713 5713 5713 5712 5710 5709 5708 5708 5707 5705 5703 5700 5698 5696 5693 5691 5688 5686 5684 5682 5680 5677 5675 5673 5671 5669
5597 5595 5600 5610 5618 5625 5628 5627 5643 5659 5668 5672 5677 5683 5689 5696 5701 5703 5706 5708 5711 5712 5713 5712 5711 5710 5708 5706 5705 5705 5704 5703 5702 5701 5698 5696 5693 5691 5688 5686 5683 5681 5679 5676 5674 5671 5670 5667 5665
5584 5582 5582 5600 5611 5618 5614 5615 5640 5654 5658 5662 5669 5676 5682 5689 5695 5699 5703 5706 5709 5710 5710 5710 5710 5708 5706 5704 5703 5701 5700 5700 5699 5698 5696 5693 5690 5687 5685 5682 5680 5678 5675 5673 5670 5667 5664 5661 5659
5568 5570 5579 5594 5607 5611 5609 5615 5637 5651 5653 5655 5662 5670 5677 5683 5689 5694 5699 5702 5704 5705 5706 5706 5706 5705 5703 5702 5701 5699 5697 5696 5695 5694 5693 5690 5688 5685 5682 5679 5676 5674 5671 5668 5665 5662 5658 5654 5652
5567 5576 5582 5589 5602 5606 5605 5613 5629 5642 5647 5649 5656 5664 5671 5676 5682 5687 5692 5695 5697 5698 5700 5701 5701 5701 5700 5698 5697 5695 5693 5692 5690 5689 5688 5686 5684 5681 5678 5675 5673 5669 5666 5663 5660 5656 5653 5649 5645
5579 5579 5583 5591 5602 5601 5601 5608 5621 5633 5638 5642 5649 5657 5663 5670 5676 5680 5683 5686 5688 5689 5690 5691 5693 5694 5694 5692 5690 5688 5687 5686 5685 5684 5683 5681 5679 5677 5674 5671 5668 5665 5661 5658 5654 5650 5646 5642 5638
5575 5578 5583 5585 5595 5596 5596 5604 5618 5628 5634 5639 5643 5649 5655 5661 5666 5669 5673 5675 5676 5677 5679 5681 5683 5685 5686 5686 5685 5685 5684 5683 5683 5681 5678 5675 5673 5670 5668 5665 5662 5659 5656 5652 5649 5644 5639 5635 5631
5569 5576 5581 5579 5584 5590 5591 5594 5609 5621 5629 5633 5637 5642 5647 5652 5654 5657 5660 5662 5663 5664 5666 5670 5672 5675 5676 5677 5677 5677 5677 5677 5675 5674 5673 5671 5668 5665 5662 5659 5657 5653 5650 5646 5643 5638 5632 5627 5623
5562 5575 5580 5577 5571 5572 5580 5578 5605 5611 5615 5621 5627 5632 5637 5641 5644 5646 5648 5650 5651 5653 5655 5659 5662 5664 5666 5668 5667 5665 5664 5664 5666 5667 5667 5666 5664 5661 5657 5654 5650 5647 5643 5640 5637 5633 5627 5621 5615
5559 5570 5572 5571 5567 5571 5577 5574 5596 5606 5606 5612 5619 5624 5628 5631 5634 5635 5637 5639 5641 5643 5645 5648 5651 5654 5656 5657 5657 5656 5655 5656 5657 5658 5658 5657 5657 5655 5652 5648 5644 5640 5636 5633 5629 5625 5620 5615 5610
5557 5558 5558 5560 5558 5555 5575 5574 5588 5600 5608 5609 5613 5616 5619 5622 5625 5626 5628 5630 5631 5633 5635 5638 5641 5643 5645 5646 5646 5646 5646 5646 5646 5645 5646 5646 5646 5645 5644 5641 5637 5633 5629 5625 5621 5617 5612 5608 5603
5548 5543 5537 5537 5539 5552 5583 5581 5591 5607 5613 5610 5608 5608 5611 5614 5615 5616 5618 5619 5621 5622 5624 5627 5629 5631 5633 5634 5635 5635 5636 5636 5635 5635 5634 5634 5634 5633 5632 5630 5627 5623 5620 5616 5612 5606 5602 5597 5592
5542 5545 5541 5542 5546 5560 5572 5573 5586 5602 5605 5605 5603 5603 5604 5605 5606 5607 5608 5609 5610 5612 5613 5615 5616 5618 5619 5621 5622 5623 5624 5625 5624 5624 5624 5623 5622 5621 5620 5618 5615 5611 5607 5603 5599 5594 5589 5585 5580
5538 5540 5548 5546 5555 5555 5561 5574 5575 5589 5589 5591 5592 5594 5595 5597 5598 5599 5600 5600 5600 5601 5602 5603 5605 5606 5607 5608 5609 5611 5611 5612 5612 5613 5612 5611 5610 5609 5606 5604 5601 5596 5592 5587 5582 5577 5572 5568 5564
5538 5543 5538 5536 5543 5551 5567 5571 5570 5574 5577 5582 5585 5586 5588 5590 5590 5591 5590 5590 5590 5590 5591 5592 5593 5594 5595 5596 5597 5598 5598 5599 5600 5600 5599 5597 5596 5594 5591 5588 5584 5580 5575 5569 5564 5558 5553 5548 5543
5532 5536 5538 5540 5544 5542 5553 5563 5584 5579 5579 5579 5581 5583 5582 5582 5582 5581 5580 5580 5580 5580 5581 5581 5582 5582 5583 5584 5584 5585 5585 5586 5586 5585 5584 5583 5580 5578 5575 5571 5567 5562 5556 5550 5545 5538 5533 5527 5522
5535 5539 5537 5532 5537 5543 5540 5554 5579 5579 5578 5577 5576 5576 5576 5575 5573 5572 5572 5571 5571 5570 5570 5570 5570 5570 5571 5572 5572 5572 5572 5572 5572 5570 5569 5568 5565 5562 5558 5554 5549 5544 5537 5531 5525 5519 5513 5508 5503